[[{"header":{"parameterUnit":"m.s-1","parameterCategory":1,"la1":30.2991,"la2":30.254,"lo1":-89.0895,"lo2":-89.0444,"dx":0.0017,"dy":0.0017,"nx":28,"ny":28,"refTime":"2023-02-06T09:00:00:Z","depth":0,"parameterNumber":2,"parameterNumberName":"U-component_of_WINDS"},"data":[0,0,0,0,0,0,0,0,0,0,0,0,0,0,0,0,0,0,0,0,0,0,0,0,0,0,0,0,0,0,0,0,0,0,0,0,0,0,0,0,0,0,0,0,0,0,0,0,0,0,0,0,0,0,0,0,0,0,-0.5756,-0.5756,0,-0.578,-0.5781,-0.5781,-0.5764,-0.5763,-0.5762,-0.5762,-0.5788,-0.5789,-0.579,0,0,0,0,0,0,0,0,0,0,0,0,0,-0.5696,-0.5697,-0.5756,-0.5756,-0.5757,-0.578,-0.5781,-0.5781,-0.5764,-0.5763,-0.5762,-0.5761,-0.5787,-0.5789,-0.5791,0,0,0,0,0,0,0,0,0,0,0,0,0,-0.5721,-0.5697,-0.5756,-0.5751,-0.5751,-0.578,-0.5781,-0.5781,-0.5764,-0.5763,-0.5762,-0.5761,-0.5787,-0.5789,-0.5791,-0.5827,0,0,-0.5797,-0.5798,0,0,0,0,0,0,0,0,-0.572,-0.5724,-0.5752,-0.5751,-0.5751,-0.5768,-0.5769,-0.5796,-0.5764,-0.5759,-0.5762,-0.576,-0.5782,-0.5785,-0.5792,-0.5828,-0.5829,-0.5797,-0.5799,-0.58,-0.58,0,0,0,0,0,0,0,-0.5718,-0.5722,-0.5766,-0.5752,-0.5752,-0.5748,-0.575,-0.5774,-0.5777,-0.576,-0.5758,-0.5761,-0.5782,-0.579,-0.5792,-0.583,-0.5797,-0.5799,-0.5801,-0.5801,-0.5896,-0.5897,0,0,0,0,0,0,-0.5717,-0.5721,-0.5765,-0.5767,-0.5732,-0.575,-0.5752,-0.5764,-0.5777,-0.5777,-0.5762,-0.5761,-0.5787,-0.579,-0.5793,-0.5836,-0.58,-0.5802,-0.5803,-0.5895,-0.5897,-0.5898,0,0,0,0,0,0,-0.5715,-0.5721,-0.5764,-0.5743,-0.5749,-0.5752,-0.5765,-0.5765,-0.5773,-0.5779,-0.5779,-0.577,-0.5786,-0.579,-0.5818,-0.5837,-0.5803,-0.5804,-0.5894,-0.5896,-0.5897,-0.5922,0,0,0,0,0,0,-0.5714,-0.572,-0.5734,-0.5744,-0.575,-0.5789,-0.5766,-0.5766,-0.5776,-0.5774,-0.5786,-0.5787,-0.5785,-0.5815,-0.582,-0.5839,-0.5806,-0.5892,-0.5894,-0.5897,-0.592,-0.5925,-0.5929,0,0,0,0,0,-0.5712,-0.5741,-0.5735,-0.574,-0.5767,-0.579,-0.5794,-0.5791,-0.5778,-0.5792,-0.5795,-0.5786,-0.5834,-0.5818,-0.5824,-0.5843,-0.5891,-0.5894,-0.5896,-0.5918,-0.5924,-0.5929,0,0,0,0,0,0,-0.5734,-0.5742,-0.5736,-0.5768,-0.5779,-0.5787,-0.5805,-0.5797,-0.5812,-0.5809,-0.5806,-0.5809,-0.5838,-0.5844,-0.5827,-0.5879,-0.586,-0.5864,-0.5874,-0.588,-0.5885,-0.5883,-0.5808,0,0,0,0,0,-0.5742,-0.576,-0.5766,-0.5795,-0.58,-0.5801,-0.5811,-0.5808,-0.5819,-0.5823,-0.5829,-0.584,-0.5857,-0.5869,-0.5885,-0.592,-0.5922,-0.5936,-0.5941,-0.5944,-0.5948,-0.5967,-0.5973,-0.5907,-0.5907,-0.5907,0,0,-0.576,-0.5767,-0.5778,-0.5799,-0.5807,-0.5825,-0.5805,-0.5826,-0.584,-0.5827,-0.5854,-0.5858,-0.587,-0.5902,-0.5916,-0.5907,-0.5967,-0.5948,-0.5951,-0.5953,-0.597,-0.5976,-0.5982,-0.5909,-0.5909,-0.5908,0,0,-0.5803,-0.5809,-0.5834,-0.5841,-0.5853,-0.5853,-0.5859,-0.5869,-0.5871,-0.5898,-0.5888,-0.5905,-0.5934,-0.5943,-0.5952,-0.5996,-0.5989,-0.6002,-0.6026,-0.6044,-0.6049,-0.6054,-0.607,-0.6075,-0.6005,-0.6005,-0.6005,0,-0.5824,-0.5851,-0.5847,-0.5868,-0.5878,-0.5866,-0.589,-0.5898,-0.5915,-0.5921,-0.5911,-0.5947,-0.5955,-0.5988,-0.5999,-0.6006,-0.6013,-0.6001,-0.6049,-0.6053,-0.6057,-0.6073,-0.6079,-0.6007,-0.6007,-0.6007,-0.6006,0,-0.5877,-0.5896,-0.5914,-0.593,-0.5941,-0.5964,-0.5963,-0.5975,-0.5971,-0.5973,-0.6,-0.6008,-0.6025,-0.6033,-0.6029,-0.6066,-0.606,-0.6049,-0.603,-0.6065,-0.608,-0.6085,-0.6009,-0.6009,-0.6008,-0.6008,0,0,-0.5935,-0.5947,-0.5954,-0.596,-0.5971,-0.5986,-0.6008,-0.6025,-0.6035,-0.6047,-0.6065,-0.609,-0.608,-0.609,-0.6087,-0.6102,-0.6137,-0.609,-0.609,-0.6098,-0.6178,-0.6186,-0.6193,-0.6132,-0.6133,-0.6134,-0.6177,0,-0.5978,-0.6016,-0.6013,-0.6049,-0.6067,-0.6055,-0.6074,-0.6083,-0.6085,-0.6101,-0.6103,-0.6121,-0.6106,-0.6111,-0.6127,-0.613,-0.6153,-0.6127,-0.6149,-0.615,-0.6147,-0.62,-0.6209,-0.625,-0.6182,-0.6183,-0.6184,0,-0.6034,-0.6047,-0.6085,-0.6093,-0.61,-0.6117,-0.6132,-0.6147,-0.6156,-0.6157,-0.6167,-0.6161,-0.6183,-0.6163,-0.6194,-0.6176,-0.6185,-0.6187,-0.6189,-0.6191,-0.617,-0.6205,-0.6263,-0.6269,-0.6193,-0.6192,-0.6191,0,-0.6073,-0.6099,-0.6126,-0.6132,-0.6141,-0.6154,-0.6159,-0.6167,-0.6177,-0.619,-0.6196,-0.6211,-0.622,-0.6232,-0.623,-0.6216,-0.6261,-0.6241,-0.6262,-0.6262,-0.6273,-0.6272,-0.6333,-0.6278,-0.6278,-0.6277,-0.6277,0,-0.6122,-0.6146,-0.6143,-0.6159,-0.6185,-0.6181,-0.6207,-0.621,-0.6217,-0.6234,-0.6225,-0.6241,-0.6237,-0.6253,-0.6251,-0.6277,-0.6281,-0.6282,-0.6281,-0.6283,-0.6283,-0.6289,-0.6286,-0.6279,-0.6279,-0.6278,-0.6278,0,-0.617,-0.6169,-0.6197,-0.6203,-0.6206,-0.6225,-0.623,-0.6246,-0.6246,-0.6267,-0.6272,-0.6273,-0.6291,-0.629,-0.6311,-0.631,-0.6341,-0.6337,-0.6338,-0.6337,-0.6358,-0.6356,-0.6426,-0.6435,-0.6373,-0.6373,-0.6374,0,-0.6202,-0.622,-0.6228,-0.6238,-0.6244,-0.626,-0.627,-0.6266,-0.6276,-0.6288,-0.6302,-0.6319,-0.6332,-0.6361,-0.6364,-0.6379,-0.6376,-0.6399,-0.6378,-0.6379,-0.6376,-0.6376,-0.6377,-0.6404,-0.6404,-0.6405,-0.6405,0,-0.6258,-0.6257,-0.6271,-0.6285,-0.6297,-0.6308,-0.6318,-0.6327,-0.6323,-0.6336,-0.6354,-0.6364,-0.6384,-0.6401,-0.6415,-0.642,-0.6412,-0.6412,-0.6417,-0.6419,-0.6419,-0.642,-0.6349,-0.641,-0.641,-0.6409,-0.6409,-0.6409,-0.6299,-0.6315,-0.6323,-0.6339,-0.6345,-0.6355,-0.6369,-0.6371,-0.6386,-0.6402,-0.6398,-0.6418,-0.6427,-0.6445,-0.6452,-0.6467,-0.6459,-0.6467,-0.6469,-0.6471,-0.6474,-0.6416,-0.647,-0.647,-0.6469,-0.6469,-0.6469,0,-0.6355,-0.636,-0.6374,-0.6388,-0.6401,-0.6391,-0.6402,-0.6413,-0.6431,-0.6439,-0.6452,-0.6472,-0.6488,-0.6492,-0.6507,-0.6519,-0.6515,-0.6523,-0.6522,-0.6523,-0.648,-0.6474,-0.6525,-0.6525,-0.6525,-0.6525,-0.6525,-0.6525,-0.6386,-0.6411,-0.641,-0.6439,-0.6443,-0.6462,-0.6469,-0.6477,-0.6484,-0.6506,-0.6519,-0.6521,-0.6528,-0.6543,-0.6557,-0.6558,-0.6564,-0.6573,-0.6572,-0.6532,-0.6527,-0.6521,-0.6515,-0.6574,-0.6574,-0.6614,-0.6615,-0.6615]},{"header":{"parameterUnit":"m.s-1","parameterCategory":1,"la1":30.2991,"la2":30.254,"lo1":-89.0895,"lo2":-89.0444,"dx":0.0017,"dy":0.0017,"nx":28,"ny":28,"refTime":"2023-02-06T09:00:00:Z","depth":0,"parameterNumber":3,"parameterNumberName":"V-component_of_WINDS"},"data":[0,0,0,0,0,0,0,0,0,0,0,0,0,0,0,0,0,0,0,0,0,0,0,0,0,0,0,0,0,0,0,0,0,0,0,0,0,0,0,0,0,0,0,0,0,0,0,0,0,0,0,0,0,0,0,0,0,0,-2.7612,-2.7613,0,-2.772,-2.7721,-2.7723,-2.7712,-2.771,-2.7709,-2.7707,-2.7814,-2.7818,-2.7822,0,0,0,0,0,0,0,0,0,0,0,0,0,-2.7393,-2.7397,-2.7612,-2.7613,-2.7615,-2.772,-2.7721,-2.7723,-2.7712,-2.771,-2.7708,-2.7707,-2.7812,-2.7817,-2.7823,0,0,0,0,0,0,0,0,0,0,0,0,0,-2.7493,-2.7399,-2.7612,-2.7622,-2.7624,-2.772,-2.7721,-2.7723,-2.7713,-2.771,-2.7708,-2.7706,-2.7811,-2.7817,-2.7823,-2.7914,0,0,-2.7843,-2.7846,0,0,0,0,0,0,0,0,-2.7488,-2.7501,-2.7619,-2.7622,-2.7624,-2.77,-2.7683,-2.7787,-2.7714,-2.7679,-2.7707,-2.7704,-2.7778,-2.7787,-2.7812,-2.7919,-2.7923,-2.7844,-2.7848,-2.7851,-2.7853,0,0,0,0,0,0,0,-2.7481,-2.7497,-2.7655,-2.7621,-2.7624,-2.7621,-2.7632,-2.7703,-2.7741,-2.7682,-2.7681,-2.7695,-2.7778,-2.7806,-2.7815,-2.7925,-2.7844,-2.785,-2.7854,-2.7856,-2.8111,-2.8114,0,0,0,0,0,0,-2.7472,-2.7491,-2.7651,-2.7658,-2.7549,-2.7627,-2.7639,-2.7678,-2.774,-2.7747,-2.7697,-2.7694,-2.7796,-2.7807,-2.7818,-2.7929,-2.7851,-2.7857,-2.7861,-2.8109,-2.8112,-2.8115,0,0,0,0,0,0,-2.7467,-2.7486,-2.7647,-2.7575,-2.7595,-2.7633,-2.7677,-2.7682,-2.7709,-2.7751,-2.7758,-2.7718,-2.7795,-2.7809,-2.7891,-2.7933,-2.786,-2.7866,-2.8105,-2.811,-2.8114,-2.8151,0,0,0,0,0,0,-2.7461,-2.7485,-2.752,-2.7575,-2.7599,-2.7719,-2.7679,-2.7686,-2.7721,-2.7718,-2.7773,-2.778,-2.7794,-2.7881,-2.7897,-2.794,-2.7871,-2.8102,-2.8107,-2.8112,-2.8146,-2.8156,-2.8164,0,0,0,0,0,-2.7453,-2.7525,-2.7522,-2.7542,-2.7644,-2.7721,-2.7734,-2.775,-2.7725,-2.776,-2.7787,-2.7778,-2.7925,-2.7889,-2.7908,-2.7953,-2.8099,-2.8106,-2.8112,-2.8142,-2.8154,-2.8164,0,0,0,0,0,0,-2.7473,-2.7533,-2.753,-2.7622,-2.7667,-2.7719,-2.7764,-2.7762,-2.7813,-2.7808,-2.7824,-2.7837,-2.7919,-2.7944,-2.7903,-2.8044,-2.8009,-2.8019,-2.8025,-2.8037,-2.8046,-2.8038,-2.7877,0,0,0,0,0,-2.7488,-2.7547,-2.7595,-2.7672,-2.7695,-2.7726,-2.776,-2.7768,-2.7814,-2.7833,-2.7866,-2.791,-2.7966,-2.8003,-2.8057,-2.8149,-2.8161,-2.819,-2.8199,-2.8206,-2.8215,-2.8266,-2.8279,-2.8136,-2.8136,-2.8136,0,0,-2.7519,-2.7559,-2.7595,-2.7677,-2.7712,-2.7772,-2.7742,-2.7805,-2.785,-2.7842,-2.7922,-2.7947,-2.7997,-2.8085,-2.8125,-2.8108,-2.8257,-2.8214,-2.822,-2.8224,-2.8274,-2.8287,-2.8299,-2.814,-2.814,-2.8139,0,0,-2.7607,-2.7644,-2.7712,-2.7749,-2.7804,-2.7824,-2.784,-2.7894,-2.7911,-2.7991,-2.7987,-2.8039,-2.8135,-2.8172,-2.8203,-2.8305,-2.8299,-2.8322,-2.837,-2.8419,-2.8431,-2.8441,-2.8478,-2.8491,-2.8331,-2.8331,-2.8331,0,-2.7639,-2.773,-2.7747,-2.7813,-2.7848,-2.7846,-2.7915,-2.7949,-2.8018,-2.8042,-2.8023,-2.8145,-2.8178,-2.8274,-2.83,-2.8325,-2.8344,-2.8316,-2.8428,-2.8438,-2.8448,-2.8483,-2.8497,-2.8334,-2.8333,-2.8333,-2.8333,0,-2.7767,-2.783,-2.7878,-2.7947,-2.7988,-2.8055,-2.8081,-2.812,-2.8125,-2.8148,-2.8229,-2.827,-2.8332,-2.8355,-2.836,-2.8453,-2.8441,-2.8425,-2.8389,-2.8464,-2.8497,-2.8511,-2.8337,-2.8336,-2.8335,-2.8335,0,0,-2.787,-2.7948,-2.7966,-2.7997,-2.8058,-2.8106,-2.8172,-2.8235,-2.8269,-2.8316,-2.8372,-2.8454,-2.844,-2.8475,-2.8484,-2.8528,-2.8607,-2.8506,-2.8507,-2.8524,-2.8712,-2.8724,-2.8739,-2.8603,-2.8606,-2.8608,-2.8708,0,-2.7964,-2.8084,-2.8101,-2.8206,-2.8264,-2.8263,-2.832,-2.8363,-2.8386,-2.8438,-2.8462,-2.852,-2.8497,-2.8518,-2.8561,-2.8588,-2.8645,-2.8581,-2.8654,-2.8657,-2.8642,-2.8757,-2.877,-2.8862,-2.8721,-2.8723,-2.8725,0,-2.809,-2.8144,-2.8255,-2.8308,-2.8333,-2.8385,-2.8444,-2.8494,-2.8543,-2.8556,-2.8596,-2.86,-2.8667,-2.8629,-2.8722,-2.8679,-2.8709,-2.8727,-2.8731,-2.8739,-2.8695,-2.8768,-2.8892,-2.8906,-2.8745,-2.8744,-2.8742,0,-2.8155,-2.8254,-2.8334,-2.836,-2.8425,-2.8461,-2.8489,-2.8536,-2.8572,-2.8624,-2.8648,-2.8705,-2.8737,-2.8781,-2.88,-2.877,-2.8892,-2.8855,-2.8905,-2.8904,-2.8931,-2.8929,-2.9062,-2.895,-2.895,-2.8949,-2.8949,0,-2.8259,-2.8327,-2.8364,-2.8413,-2.8489,-2.8508,-2.8582,-2.8609,-2.865,-2.8703,-2.8705,-2.8755,-2.8776,-2.8829,-2.8844,-2.8919,-2.8933,-2.8945,-2.8949,-2.8946,-2.8944,-2.8966,-2.896,-2.8953,-2.8952,-2.8952,-2.8951,0,-2.8344,-2.8371,-2.8458,-2.8512,-2.8528,-2.8581,-2.8627,-2.8674,-2.8697,-2.8764,-2.8781,-2.8816,-2.8878,-2.8901,-2.8977,-2.8987,-2.9074,-2.9071,-2.9058,-2.9059,-2.9107,-2.9103,-2.9259,-2.9281,-2.9154,-2.9156,-2.9157,0,-2.8408,-2.8461,-2.8522,-2.8559,-2.8589,-2.8647,-2.8686,-2.8706,-2.8745,-2.8805,-2.8845,-2.8907,-2.8959,-2.9058,-2.9089,-2.9147,-2.9146,-2.9197,-2.9155,-2.9151,-2.9148,-2.9145,-2.915,-2.9205,-2.9206,-2.9208,-2.9208,0,-2.852,-2.8532,-2.8588,-2.8649,-2.8695,-2.8743,-2.879,-2.882,-2.8847,-2.8891,-2.8956,-2.8996,-2.9074,-2.9136,-2.9195,-2.9223,-2.922,-2.9222,-2.9236,-2.9234,-2.9224,-2.9231,-2.908,-2.9218,-2.9217,-2.9216,-2.9216,-2.9215,-2.8598,-2.8645,-2.8695,-2.8757,-2.8795,-2.884,-2.8887,-2.8916,-2.8971,-2.9037,-2.9045,-2.9115,-2.9162,-2.9242,-2.9273,-2.9327,-2.9313,-2.9333,-2.9339,-2.9344,-2.9348,-2.9216,-2.9337,-2.9337,-2.9337,-2.9337,-2.9336,0,-2.871,-2.8743,-2.88,-2.8867,-2.8916,-2.8911,-2.8963,-2.9003,-2.9065,-2.911,-2.9161,-2.9236,-2.9296,-2.9333,-2.9393,-2.9429,-2.9429,-2.9444,-2.9442,-2.9448,-2.9356,-2.9338,-2.9443,-2.9443,-2.9443,-2.9443,-2.9443,-2.9443,-2.8774,-2.8854,-2.8872,-2.897,-2.9002,-2.9072,-2.9102,-2.9142,-2.9178,-2.9262,-2.9313,-2.9337,-2.9379,-2.9442,-2.9497,-2.9506,-2.9528,-2.9545,-2.9552,-2.9466,-2.9455,-2.9444,-2.9427,-2.9549,-2.9549,-2.964,-2.9641,-2.9641]}]]